User: anonymous   Login
Location: Unspecified
(0.0000°N, 0.0000°E)
Time: 02:33:45
(UTC+02:00)
Language:

CZ-4B R/B - Orbit

View from above orbital plane
View from above orbital plane
View from above satellite
View from above satellite

Ground track
Ground track

The orbit data is extracted from the following two-line orbital elements,

1 33410U 08053C   17085.88956863 +.00000080 +00000-0 +10749-4 0  9994
2 33410 097.7217 057.2749 0121780 106.7916 254.6708 14.98179590458247
Epoch (UTC): 26 March 2017 21:20:58
Eccentricity: 0.0121780
inclination: 97.7217°
perigee height: 488 km
apogee height: 657 km
right ascension of ascending node: 57.2749°
argument of perigee: 106.7916°
revolutions per day: 14.98179590
mean anomaly at epoch: 254.6708°
orbit number at epoch: 45824

The dashed part of the orbit path shows where the satellite is in the earth's shadow,  

DLR